Date,TemperatureHighF,TemperatureAvgF,TemperatureLowF,DewpointHighF,DewpointAvgF,DewpointLowF,HumidityHigh,HumidityAvg,HumidityLow,PressureMaxIn,PressureMinIn,WindSpeedMaxMPH,WindSpeedAvgMPH,GustSpeedMaxMPH,PrecipitationSumIn
2013-2-1,26.0,15.4,1.0,13.0,2.4,-7.0,68,56,42,30.44,30.11,11,4,12,0.01
2013-2-2,42.0,32.3,24.0,32.0,22.3,11.0,76,66,58,30.22,30.06,9,3,16,0.04
2013-2-3,44.0,38.0,30.0,29.0,20.4,14.0,74,51,32,30.27,29.86,17,5,22,0.01
2013-2-4,41.0,32.3,23.0,28.0,22.4,17.0,80,67,57,30.00,29.74,17,3,22,0.00
2013-2-5,55.0,36.8,22.0,34.0,24.1,16.0,83,63,33,30.11,29.89,16,3,17,0.00
2013-2-6,59.0,45.7,31.0,38.0,30.2,23.0,77,57,36,30.12,29.89,14,5,16,0.00
2013-2-7,50.0,42.2,32.0,42.0,35.1,25.0,89,76,57,30.21,29.87,15,5,19,0.07
2013-2-8,40.0,32.0,28.0,27.0,24.5,23.0,80,74,59,30.34,30.21,15,5,16,0.01
2013-2-9,45.0,35.9,28.0,33.0,28.2,23.0,85,74,53,30.23,29.77,14,8,20,0.01
2013-2-10,54.0,43.5,35.0,45.0,32.4,20.0,91,67,44,29.86,29.43,29,11,38,0.07
2013-2-11,46.0,37.5,30.0,25.0,21.6,18.0,70,53,38,30.15,29.86,17,4,24,0.01
2013-2-12,43.0,32.6,23.0,28.0,21.3,17.0,84,64,43,30.17,29.94,5,1,7,0.00
2013-2-13,55.0,39.6,24.0,27.0,21.7,18.0,76,51,28,29.94,29.79,7,2,15,0.00
2013-2-14,51.0,42.2,34.0,29.0,24.5,20.0,66,50,37,30.16,29.80,14,4,21,0.00
2013-2-15,36.0,29.4,19.0,27.0,12.7,5.0,77,50,29,30.37,30.15,13,4,19,0.00
2013-2-16,36.0,27.9,16.0,20.0,14.9,9.0,76,59,43,30.32,30.05,10,2,14,0.00
2013-2-17,56.0,41.8,28.0,30.0,24.0,18.0,69,50,34,30.06,29.67,11,6,14,0.00
2013-2-18,56.0,42.4,26.0,43.0,27.3,12.0,77,56,39,30.05,29.54,23,9,43,0.00
2013-2-19,32.0,23.9,17.0,14.0,4.7,-2.0,70,45,25,30.34,30.03,24,5,24,0.00
2013-2-20,24.0,17.9,11.0,9.0,3.1,-3.0,60,52,43,30.39,30.18,13,6,17,0.00
2013-2-21,24.0,21.8,19.0,20.0,15.2,8.0,86,76,58,30.20,29.76,21,10,32,0.00
2013-2-22,29.0,22.8,15.0,19.0,15.2,7.0,86,73,60,30.06,29.77,9,2,10,0.11
2013-2-23,35.0,22.5,8.0,17.0,11.7,3.0,80,64,47,30.05,29.93,8,1,12,0.02
2013-2-24,43.0,31.7,17.0,22.0,18.6,12.0,82,60,39,30.04,29.93,11,4,14,0.00
2013-2-25,37.0,33.0,28.0,30.0,23.8,20.0,85,69,60,29.99,29.75,19,9,25,0.01
2013-2-26,32.0,31.3,30.0,30.0,29.1,27.0,92,91,86,29.85,29.60,24,9,31,0.08
2013-2-27,33.0,30.3,27.0,28.0,25.4,22.0,91,82,66,30.03,29.81,17,6,27,0.13
2013-2-28,34.0,29.9,27.0,24.0,22.2,20.0,78,73,61,30.20,30.02,21,5,22,0.01